Goodland, KS

6:03 AM MDT on April 26, 2017 (GMT -0600)
Renner-Goodland Municipal

Weather History for KGLD - September, 2012

Change the Weather History Date:

Sunday, September 23, 2012

  Actual Average Record
Temperature  
Mean Temperature 59 °F 61 °F  
Max Temperature 73 °F 76 °F 95 °F (1954)
Min Temperature 45 °F 47 °F 29 °F (1946)
Degree Days  
Heating Degree Days 6 6  
Month to date heating degree days 53 64  
Since 1 July heating degree days 58 76  
Cooling Degree Days 0 2  
Month to date cooling degree days 86 92  
Year to date cooling degree days 1334 925  
Growing Degree Days 10 (Base 50)    
Moisture  
Dew Point 30 °F    
Average Humidity 39    
Maximum Humidity 54    
Minimum Humidity 23    
Precipitation  
Precipitation 0.00 in 0.04 in 1.46 in (2010)
Month to date precipitation 0.30 0.95  
Year to date precipitation 8.46 16.85  
Snow  
Snow 0.00 in 0.00 in - ()
Month to date snowfall 0.0 0.2  
Since 1 July snowfall 0.0 0.2  
Since 1 September snowfall 0.0 0.2  
Snow Depth 0.00 in    
Sea Level Pressure  
Sea Level Pressure 30.14 in    
Wind  
Wind Speed 14 mph (SSE)    
Max Wind Speed 21 mph    
Max Gust Speed 29 mph    
Visibility 10 miles    
Events      
T = Trace of Precipitation, MM = Missing Value Source: NWS Daily Summary

Daily Weather History Graph

Daily Weather History Graph

Search for Another Location

Airport or City:

Trip Planner

Search our weather history database for the weather conditions in past years. The results will help you decide how hot, cold, wet, or windy it might be!

Date:

Astronomy

Sep. 23, 2012 Rise Set
Actual Time 6:35 AM MDT 6:41 PM MDT
Civil Twilight 6:09 AM MDT 7:08 PM MDT
Nautical Twilight 5:37 AM MDT 7:39 PM MDT
Astronomical Twilight 5:05 AM MDT 8:11 PM MDT
Moon 2:42 PM MDT (9/23) No Moon Set
Length of Visible Light 12h 58m
Length of Day
12h 05m
First Quarter, 60% of the Moon is Illuminated
Sep 23
First Quarter
Sep 29
Full
Oct 8
Last Quarter
Oct 15
New
Oct 21
First Quarter

Hourly Weather History & Observations

Time (MDT) Temp. Dew Point Humidity Pressure Visibility Wind Dir Wind Speed Gust Speed Precip Events Conditions
12:53 AM 53.1 °F 28.0 °F 38% 30.20 in 10.0 mi SSE 16.1 mph - N/A   Clear
1:53 AM 51.1 °F 28.0 °F 41% 30.19 in 10.0 mi South 17.3 mph - N/A   Clear
2:53 AM 50.0 °F 27.0 °F 41% 30.18 in 10.0 mi South 18.4 mph - N/A   Clear
3:53 AM 50.0 °F 27.0 °F 41% 30.17 in 10.0 mi South 16.1 mph - N/A   Clear
4:53 AM 48.9 °F 28.0 °F 44% 30.18 in 10.0 mi South 15.0 mph - N/A   Clear
5:53 AM 48.0 °F 28.9 °F 48% 30.19 in 10.0 mi South 11.5 mph - N/A   Clear
6:53 AM 48.0 °F 30.9 °F 52% 30.22 in 10.0 mi South 11.5 mph - N/A   Clear
7:53 AM 52.0 °F 30.9 °F 45% 30.22 in 10.0 mi South 10.4 mph - N/A   Clear
8:53 AM 57.0 °F 28.9 °F 34% 30.22 in 10.0 mi South 16.1 mph - N/A   Clear
9:53 AM 60.1 °F 28.9 °F 31% 30.20 in 10.0 mi SSE 19.6 mph 24.2 mph N/A   Clear
10:53 AM 64.0 °F 30.0 °F 28% 30.18 in 10.0 mi South 15.0 mph 24.2 mph N/A   Clear
11:53 AM 66.0 °F 30.9 °F 27% 30.16 in 10.0 mi SSE 19.6 mph 25.3 mph N/A   Clear
12:53 PM 70.0 °F 32.0 °F 25% 30.13 in 10.0 mi SSE 15.0 mph 24.2 mph N/A   Clear
1:53 PM 72.0 °F 32.0 °F 23% 30.10 in 10.0 mi SE 13.8 mph 20.7 mph N/A   Clear
2:53 PM 72.0 °F 32.0 °F 23% 30.09 in 10.0 mi SSE 17.3 mph 25.3 mph N/A   Clear
3:53 PM 71.1 °F 32.0 °F 24% 30.08 in 10.0 mi South 16.1 mph - N/A   Clear
4:53 PM 70.0 °F 32.0 °F 25% 30.08 in 10.0 mi SSE 17.3 mph 23.0 mph N/A   Clear
5:53 PM 69.1 °F 30.9 °F 24% 30.08 in 10.0 mi SSE 16.1 mph - N/A   Clear
6:53 PM 62.1 °F 32.0 °F 32% 30.10 in 10.0 mi SSE 9.2 mph - N/A   Clear
7:53 PM 57.9 °F 30.9 °F 36% 30.09 in 10.0 mi SSE 10.4 mph - N/A   Clear
8:53 PM 55.0 °F 30.9 °F 40% 30.10 in 10.0 mi SSE 9.2 mph - N/A   Clear
9:53 PM 52.0 °F 30.9 °F 45% 30.11 in 10.0 mi SSE 10.4 mph - N/A   Clear
10:53 PM 48.9 °F 32.0 °F 52% 30.09 in 10.0 mi SSE 9.2 mph - N/A   Clear
11:53 PM 50.0 °F 33.1 °F 52% 30.07 in 10.0 mi South 9.2 mph - N/A   Clear